Location: *
(58.4167°N, 22.5000°E)
Time: 12:11:13
(UTC+00:00)

Cosmos 1125 Rocket - Pass Details

Date: 22 September 2019
Orbit: 757 x 780 km, 74.0° (Epoch: 18 October)

Event Time Altitude Azimuth Distance (km) Brightness Sun altitude
Rises 23:14:32 0° 328° (NNW) 3,281 7.3 -30.6°
Reaches altitude 10° 23:17:01 10° 333° (NNW) 2,350 6.5 -30.5°
Maximum altitude 23:22:14 52° 50° (NE) 977 4.2 -30.3°
Enters shadow 23:22:35 51° 64° (ENE) 987 4.2 -30.3°
